This demonstration page uses our WeatherBlox Daily Observations layout. Learn more.

Left ArrowRight Arrow

47.50024, -111.30081

Hourly Observations for January 31, 2018

Temp ( °F °C ) Dew Point ( °F °C ) Humidity (%) Winds ( mph kmh ) Pressure ( in mb ) Visibility ( mi km ) Precip ( " mm )
1:53 am 01:53 Clear 31 -0.6 15 -9.4 52 52 SW 28 44 29.88 1012 10 16 0.00 0.00
2:53 am 02:53 Clear 23 -5 14 -10 68 68 SW 12 19 29.96 1015 10 16 0.00 0.00
3:53 am 03:53 Clear 27 -2.8 16 -8.9 63 63 SW 14 22 29.95 1014 10 16 0.00 0.00
4:53 am 04:53 Cloudy 28 -2.2 17 -8.3 63 63 SW 13 20 29.97 1015 10 16 0.00 0.00
5:53 am 05:53 Mostly Clear 26 -3.3 17 -8.3 69 69 SW 16 26 29.99 1016 10 16 0.00 0.00
6:53 am 06:53 Clear 27 -2.8 17 -8.3 66 66 SW 16 26 30.00 1016 10 16 0.00 0.00
7:53 am 07:53 Cloudy 24 -4.4 17 -8.3 75 75 SW 10 17 30.04 1017 10 16 0.00 0.00
8:53 am 08:53 Cloudy 27 -2.8 18 -7.8 69 69 SW 12 19 30.06 1018 10 16 0.00 0.00
9:53 am 09:53 Mostly Cloudy 30 -1.1 17 -8.3 58 58 W 10 17 30.09 1019 10 16 0.00 0.00
10:39 am 10:39 Mostly Cloudy 26 -3.3 18 -7.8 71 71 N 17 28 30.12 1020 10 16 0.00 0.00
10:53 am 10:53 Mostly Cloudy 24 -4.4 16 -8.9 71 71 N 17 28 30.14 1021 10 16 0.00 0.00
11:53 am 11:53 Mostly Sunny 22 -5.6 13 -10.6 68 68 N 14 22 30.18 1022 10 16 0.00 0.00
12:25 pm 12:25 Mostly Cloudy 21 -6.1 12 -11.1 68 68 N 15 24 30.24 1024 10 16 0.00 0.00
12:53 pm 12:53 Cloudy 20 -6.7 11 -11.7 68 68 NNE 8 13 30.19 1022 10 16 0.00 0.00
1:27 pm 13:27 Mostly Cloudy 20 -6.7 11 -11.7 68 68 N 9 15 30.27 1025 10 16 0.00 0.00
1:37 pm 13:37 Partly Cloudy 20 -6.7 11 -11.7 68 68 NNE 8 13 30.27 1025 10 16 0.00 0.00
1:53 pm 13:53 Sunny 20 -6.7 10 -12.2 65 65 NE 7 11 30.20 1023 10 16 0.00 0.00
2:53 pm 14:53 Cloudy 20 -6.7 9 -12.8 62 62 NNE 9 15 30.24 1024 10 16 0.00 0.00
3:53 pm 15:53 Sunny 20 -6.7 9 -12.8 62 62 NE 7 11 30.24 1024 10 16 0.00 0.00
4:53 pm 16:53 Sunny 17 -8.3 8 -13.3 68 68 N 9 15 30.25 1025 10 16 0.00 0.00
5:53 pm 17:53 Clear 12 -11.1 7 -13.9 80 80 NNE 7 11 30.28 1025 10 16 0.00 0.00
6:53 pm 18:53 Mostly Cloudy 12 -11.1 9 -12.8 87 87 NE 9 15 30.29 1026 10 16 0.00 0.00
7:00 pm 19:00 Cloudy 12 -11.1 8 -13.3 84 84 NE 10 17 30.39 1029 10 16 0.00 0.00
7:16 pm 19:16 Cloudy with Light Snow 12 -11.1 8 -13.3 84 84 NE 10 17 30.39 1029 2 3 0.00 0.03
7:22 pm 19:22 Cloudy with Light Snow 12 -11.1 8 -13.3 84 84 NE 9 15 30.39 1029 3 5 0.00 0.03
7:53 pm 19:53 Cloudy 11 -11.7 7 -13.9 84 84 NE 6 9 30.31 1026 10 16 0.00 0.03
8:53 pm 20:53 Cloudy 10 -12.2 7 -13.9 87 87 E 9 15 30.31 1026 10 16 0.00 0.00
9:53 pm 21:53 Cloudy 8 -13.3 4 -15.6 83 83 ENE 8 13 30.32 1027 10 16 0.00 0.00
10:53 pm 22:53 Cloudy 8 -13.3 3 -16.1 80 80 ENE 9 15 30.35 1028 10 16 0.00 0.00
11:53 pm 23:53 Cloudy 8 -13.3 3 -16.1 80 80 E 7 11 30.36 1028 10 16 0.00 0.00

Powered by AerisWeather